Regional Weather Roundup
Issued by NWS

Home | Current Version | Previous Version | Graphics & Text | Print | Product List | Glossary On
Versions: 1 2 3 4 5 6 7 8 9 10 11 12 13 14 15 16 17 18 19 20 21 22 23 24 25 26 27 28 29 30 31 32 33 34 35 36 37 38 39 40 41 42 43 44 45 46 47 48 49 50
000
ASUS43 KOAX 271310
RWRNE

WEATHER ROUNDUP FOR NEBRASKA
NATIONAL WEATHER SERVICE OMAHA NE
800 AM CDT TUE JUN 27 2017

NOTES: SATELLITE DATA IS BEING USED TO AUGMENT CLOUD COVER ABOVE
       12000 FEET.
       "FAIR" INDICATES FEW OR NO CLOUDS BELOW 12,000 FEET WITH NO
       SIGNIFICANT WEATHER AND/OR OBSTRUCTIONS TO VISIBILITY.

  * THESE STATIONS DO NOT REPORT WEATHER SUCH AS RAIN...SNOW OR FOG.

NEZ001>004-019>022-054>056-271400-
NEBRASKA PANHANDLE

CITY           SKY/WX    TMP DP  RH WIND       PRES   REMARKS
SCOTTSBLUFF    CLOUDY    64  57  78 SE15      29.93F
ALLIANCE       CLOUDY    61  56  83 S25G35    29.92F
CHADRON        MOSUNNY   65  55  70 S17G26    29.84S
GORDON         CLOUDY    65  57  75 S18G31    29.91F
KIMBALL        CLOUDY    61  59  95 S12G20    29.98F
SIDNEY         CLOUDY    60  57  89 S16G24    29.98F
$$

NEZ057>060-069>072-079>082-271400-
SOUTHWEST NEBRASKA

CITY           SKY/WX    TMP DP  RH WIND       PRES   REMARKS
NORTH PLATTE   PTSUNNY   62  58  86 SE12      30.01F
IMPERIAL       CLOUDY    61  57  87 S14       30.01S
LEXINGTON      SUNNY     61  57  85 SE12      30.03F
MCCOOK         CLOUDY    61  60  97 SE12      30.01F
OGALLALA       PTSUNNY   63  58  84 S12       30.00F
$$

NEZ005>010-023>029-035>040-094-271400-
NORTH CENTRAL NEBRASKA

CITY           SKY/WX    TMP DP  RH WIND       PRES   REMARKS
VALENTINE      CLOUDY    62  53  72 S18       29.96F
AINSWORTH      SUNNY     60  55  83 S18       29.99F
BROKEN BOW     SUNNY     60  56  86 SE12      30.02F
O`NEILL        CLOUDY    54  54  99 S12       30.04F FOG
ORD            PTSUNNY   60  55  83 SE9       30.04F HAZE
THEDFORD       CLOUDY    62  56  82 S15G22    30.01F
$$

NEZ041-046>049-061>064-073>077-083>087-271400-
SOUTH CENTRAL NEBRASKA

CITY           SKY/WX    TMP DP  RH WIND       PRES   REMARKS
GRAND ISLAND   SUNNY     60  59  96 SE7       30.07S
AURORA         SUNNY     59  59 100 SE7       30.07F
HASTINGS       MOSUNNY   60  55  83 SE10      30.07S
HEBRON         SUNNY     59  59  99 SE6       30.06F
HOLDREGE       SUNNY     61  56  85 SE15      30.02F
KEARNEY *      MOSUNNY   61  55  82 SE12      30.05F
YORK           SUNNY     57  57 100 SE7       30.08F
$$

NEZ011>018-030>034-042>045-271400-
NORTHEAST NEBRASKA

CITY           SKY/WX    TMP DP  RH WIND       PRES   REMARKS
NORFOLK        SUNNY     60  55  83 S9        30.07S
ALBION         FOG       55  53  92 SE7       30.07F VSB 1/2
BLAIR          SUNNY     61  52  72 SE6       30.10S
FREMONT        MOSUNNY   62  58  88 SE7       30.11R
TEKAMAH        SUNNY     59  48  67 SE9       30.10S
WAYNE          MOSUNNY   59  51  73 S14       30.08S
$$

NEZ050>053-065>068-078-088>093-271400-
SOUTHEAST NEBRASKA

CITY           SKY/WX    TMP DP  RH WIND       PRES   REMARKS
LINCOLN        SUNNY     60  57  89 S7        30.10F
OMAHA EPPLEY   MOSUNNY   61  50  67 SE10      30.11S
BEATRICE       SUNNY     61  58  90 SE6       30.08F
FALLS CITY     SUNNY     58  58 100 SE6       30.10F
NEBRASKA CITY  SUNNY     60  60 100 SE6       30.11S
PLATTSMOUTH    SUNNY     60  57  89 E3        30.11S
$$

NEZ044-045-051>053-067-271400-
OMAHA AREA

CITY           SKY/WX    TMP DP  RH WIND       PRES   REMARKS
OMAHA EPPLEY   MOSUNNY   61  50  67 SE10      30.11S
BLAIR          SUNNY     61  52  72 SE6       30.10S
FREMONT        MOSUNNY   62  58  88 SE7       30.11R
MILLARD        SUNNY     63  58  84 SE6       30.11R
OFFUTT AFB     SUNNY     60  52  76 SE8       30.11R
PLATTSMOUTH    SUNNY     60  57  89 E3        30.11S
WAHOO          FOG       57  56  95 S5        30.10R VSB<1/4
$$




USA.gov is the U.S. government's official web portal to all federal, state and local government web resources and services.